This is the latest recevied weather packets stored in our database for station/object KC3WWU. If no packets are shown the sender has not sent any weather packets the latest 10 day(s).
| Time | Temp. | Humidity | Pressure | Rain* | Wind** | Luminosity | Snow |
|---|---|---|---|---|---|---|---|
| 1778157806 | 7.22° C | 70% | 1011 hPa | 0 mm | - | 96 W/m² | - |
| 1778157505 | 6.67° C | 71% | 1011 hPa | 0 mm | - | 119 W/m² | - |
| 1778157202 | 6.11° C | 72% | 1011.3 hPa | 0 mm | - | 119 W/m² | - |
| 1778156898 | 6.11° C | 78% | 1010.9 hPa | 0 mm | - | 96 W/m² | - |
| 1778156593 | 6.11° C | 75% | 1011.1 hPa | 0 mm | - | 101 W/m² | - |
| 1778156290 | 5.56° C | 75% | 1010.9 hPa | 0 mm | - | 59 W/m² | - |
| 1778155986 | 4.44° C | 82% | 1010.9 hPa | 0 mm | - | 64 W/m² | - |
| 1778155682 | 4.44° C | 90% | 1010.8 hPa | 0 mm | - | 58 W/m² | - |
| 1778155379 | 3.89° C | 90% | 1011 hPa | 0 mm | - | 39 W/m² | - |
| 1778155075 | 3.33° C | 96% | 1011 hPa | 0 mm | - | 34 W/m² | - |
| 1778154771 | 2.78° C | 98% | 1010.8 hPa | 0 mm | - | 32 W/m² | - |
| 1778154466 | 2.78° C | 99% | 1010.9 hPa | 0 mm | - | 31 W/m² | - |
| 1778154164 | 2.22° C | 99% | 1010.8 hPa | 0 mm | - | 30 W/m² | - |
| 1778153862 | 2.22° C | 99% | 1010.7 hPa | 0 mm | - | 30 W/m² | - |
| 1778153558 | 1.67° C | 99% | 1010.6 hPa | 0 mm | - | 29 W/m² | - |
| 1778153256 | 1.67° C | 99% | 1010.5 hPa | 0 mm | - | 26 W/m² | - |
| 1778152953 | 1.67° C | 99% | 1010.6 hPa | 0 mm | - | 25 W/m² | - |
| 1778152651 | 1.11° C | 99% | 1010.3 hPa | 0 mm | - | 24 W/m² | - |
| 1778152347 | 1.11° C | 99% | 1010.4 hPa | 0 mm | - | 22 W/m² | - |
| 1778152043 | 1.11° C | 99% | 1010.4 hPa | 0 mm | - | 21 W/m² | - |
| 1778151739 | 0.56° C | 99% | 1010.5 hPa | 0 mm | - | 20 W/m² | - |
| 1778151437 | 0.56° C | 99% | 1010.5 hPa | 0 mm | - | 18 W/m² | - |
| 1778151132 | 0.56° C | 99% | 1010.4 hPa | 0 mm | - | 17 W/m² | - |
| 1778150830 | 0.56° C | 99% | 1010.2 hPa | 0 mm | - | 16 W/m² | - |
| 1778150527 | 0.56° C | 99% | 1010.3 hPa | 0 mm | - | 14 W/m² | - |
* Rain latest hour (hover to see other rain measurements)
** Current wind speed in m/s (hover to see current wind gust speed)